Location: ???? ?????????
(44.3677°N, 135.2344°E)
Time: 09:10:54
(UTC+00:00)

H-2A R/B - Visible Passes

Search period start: 09 June 2026 00:00
Search period end: 19 June 2026 00:00
Orbit: 478 x 546 km, 98.3° (Epoch: 9 June)

Date Brightness Start Highest point End Pass type
(mag) Time Alt. Az. Time Alt. Az. Time Alt. Az.
9 Jun 3.3 17:50:54 10° SE 17:54:33 47° ENE 17:58:17 10° N visible
10 Jun 4.2 17:35:17 10° SE 17:38:39 31° ENE 17:42:06 10° N visible
11 Jun 4.9 17:19:53 10° ESE 17:22:48 21° ENE 17:25:45 10° NNE visible
12 Jun 5.2 17:04:48 10° E 17:06:58 15° ENE 17:09:10 10° NNE visible
12 Jun 2.5 18:36:44 10° S 18:40:26 49° W 18:44:15 10° NNW visible
13 Jun 5.8 16:51:06 10° ENE 16:51:10 10° ENE 16:51:14 10° ENE visible
13 Jun 2.2 18:20:35 10° S 18:24:25 79° WSW 18:28:20 10° NNW visible
14 Jun 2.7 18:04:36 10° SSE 18:08:25 66° ENE 18:12:18 10° N visible
15 Jun 3.6 17:48:49 10° SE 17:52:27 42° ENE 17:56:10 10° N visible
16 Jun 4.4 17:33:12 10° SE 17:36:31 28° ENE 17:39:54 10° N visible
17 Jun 5.0 17:17:49 10° ESE 17:20:37 19° ENE 17:23:27 10° NNE visible
18 Jun 5.3 17:02:49 10° E 17:04:45 13° ENE 17:06:41 10° NNE visible
18 Jun 2.4 18:34:21 10° S 18:38:09 57° W 18:42:02 10° NNW visible
